Total_Precipitation_Accumulation
0.28 0.28 0.24 0.19 0.18 0.18 0.21 0.27 0.44 0.67 0.98 1.32 1.44 1.61 1.77 1.80 1.64 1.47 1.41 1.31 1.14 1.09 1.05 0.95 0.93 0.88 0.82 0.76 0.71 0.64 0.60 0.58 0.59 0.61 0.61 0.60 0.60 0.58 0.57 0.54 0.50 0.49 0.49 0.47
0.26 0.25 0.27 0.24 0.22 0.20 0.25 0.32 0.48 0.74 1.12 1.41 1.52 1.59 1.70 1.77 1.68 1.57 1.54 1.51 1.49 1.46 1.42 1.28 1.15 1.06 0.96 0.85 0.79 0.73 0.72 0.70 0.68 0.65 0.61 0.61 0.60 0.59 0.60 0.58 0.55 0.48 0.46 0.45
0.31 0.22 0.33 0.51 0.39 0.34 0.40 0.45 0.59 0.85 1.06 1.20 1.36 1.54 1.57 1.59 1.69 1.69 1.75 1.83 1.83 1.72 1.59 1.44 1.33 1.26 1.17 1.04 0.95 0.91 0.88 0.82 0.73 0.65 0.62 0.58 0.53 0.56 0.60 0.58 0.53 0.47 0.43 0.44
0.39 0.42 0.70 0.67 0.40 0.40 0.55 0.65 0.67 0.74 0.80 0.99 1.24 1.38 1.38 1.46 1.66 1.74 1.73 1.72 1.70 1.59 1.48 1.39 1.34 1.27 1.15 1.03 0.97 0.91 0.87 0.80 0.70 0.60 0.58 0.58 0.58 0.59 0.57 0.53 0.50 0.50 0.48 0.47
0.50 0.70 0.78 0.77 0.49 0.45 0.64 0.84 0.68 0.74 0.76 0.89 1.00 1.16 1.39 1.47 1.59 1.74 1.64 1.58 1.61 1.59 1.49 1.43 1.36 1.23 1.14 1.06 0.95 0.90 0.85 0.71 0.58 0.51 0.51 0.52 0.52 0.52 0.51 0.50 0.49 0.45 0.41 0.42
0.63 0.83 0.96 0.87 0.46 0.36 0.64 1.16 0.85 0.83 0.85 0.87 0.96 1.25 1.37 1.33 1.29 1.35 1.39 1.43 1.54 1.65 1.67 1.59 1.44 1.19 1.10 1.03 0.90 0.78 0.66 0.55 0.49 0.45 0.42 0.40 0.40 0.44 0.45 0.46 0.43 0.37 0.33 0.35
0.76 1.04 1.10 0.57 0.29 0.42 0.93 1.15 0.96 0.90 0.91 0.90 1.02 1.11 1.01 1.00 1.10 1.21 1.33 1.42 1.47 1.53 1.52 1.44 1.31 1.12 1.05 0.96 0.82 0.64 0.51 0.46 0.46 0.40 0.32 0.30 0.35 0.40 0.41 0.37 0.37 0.35 0.35 0.33
0.86 1.11 1.19 0.51 0.36 0.59 0.74 0.64 0.63 0.66 0.70 0.73 0.80 0.84 0.90 0.93 0.99 1.07 1.19 1.29 1.29 1.28 1.23 1.12 1.01 0.93 0.92 0.84 0.64 0.48 0.43 0.42 0.40 0.34 0.21 0.20 0.30 0.33 0.32 0.34 0.34 0.32 0.32 0.30
0.98 1.13 0.81 0.45 0.41 0.42 0.47 0.48 0.47 0.54 0.56 0.60 0.65 0.74 0.88 1.00 1.04 1.04 1.02 1.04 1.00 0.92 0.87 0.85 0.80 0.76 0.72 0.62 0.47 0.41 0.41 0.42 0.37 0.31 0.25 0.20 0.24 0.27 0.27 0.29 0.26 0.22 0.24 0.25
0.84 0.90 0.64 0.43 0.36 0.35 0.35 0.35 0.39 0.48 0.53 0.51 0.53 0.56 0.67 0.76 0.84 0.86 0.85 0.80 0.75 0.68 0.65 0.63 0.60 0.56 0.52 0.42 0.38 0.41 0.43 0.40 0.39 0.37 0.30 0.23 0.20 0.17 0.18 0.21 0.22 0.21 0.23 0.24
0.92 0.90 0.71 0.57 0.42 0.35 0.34 0.35 0.41 0.46 0.45 0.42 0.39 0.41 0.47 0.56 0.60 0.62 0.60 0.56 0.53 0.52 0.49 0.45 0.40 0.38 0.36 0.33 0.32 0.38 0.36 0.31 0.28 0.25 0.24 0.23 0.18 0.10 0.09 0.11 0.10 0.13 0.16 0.16
1.01 0.82 0.70 0.62 0.49 0.39 0.36 0.35 0.35 0.32 0.32 0.36 0.37 0.37 0.41 0.47 0.51 0.50 0.45 0.44 0.46 0.47 0.43 0.40 0.36 0.30 0.25 0.22 0.24 0.32 0.30 0.24 0.18 0.15 0.14 0.14 0.19 0.14 0.06 0.04 0.04 0.05 0.06 0.06
0.60 0.50 0.47 0.43 0.41 0.43 0.34 0.28 0.27 0.27 0.27 0.31 0.32 0.31 0.33 0.35 0.35 0.33 0.34 0.36 0.39 0.40 0.37 0.35 0.32 0.29 0.23 0.18 0.19 0.25 0.26 0.20 0.12 0.09 0.10 0.11 0.17 0.23 0.20 0.11 0.06 0.06 0.04 0.04
0.44 0.46 0.48 0.37 0.30 0.28 0.22 0.20 0.21 0.20 0.23 0.24 0.25 0.25 0.25 0.26 0.26 0.27 0.30 0.29 0.29 0.27 0.26 0.26 0.25 0.23 0.19 0.14 0.14 0.15 0.15 0.09 0.08 0.10 0.09 0.11 0.13 0.15 0.18 0.22 0.24 0.20 0.10 0.05
0.38 0.36 0.34 0.22 0.17 0.17 0.14 0.13 0.14 0.17 0.19 0.23 0.20 0.17 0.17 0.22 0.25 0.24 0.21 0.20 0.20 0.20 0.19 0.20 0.20 0.17 0.14 0.10 0.09 0.09 0.09 0.11 0.09 0.08 0.08 0.08 0.09 0.11 0.12 0.15 0.19 0.20 0.17 0.12
0.28 0.21 0.16 0.14 0.14 0.15 0.14 0.12 0.12 0.14 0.16 0.18 0.16 0.16 0.15 0.18 0.20 0.20 0.17 0.15 0.18 0.17 0.15 0.15 0.15 0.12 0.09 0.07 0.07 0.08 0.06 0.03 0.04 0.05 0.04 0.05 0.06 0.08 0.09 0.11 0.16 0.19 0.19 0.17
0.19 0.17 0.15 0.13 0.11 0.12 0.12 0.11 0.10 0.10 0.11 0.14 0.14 0.12 0.13 0.17 0.19 0.18 0.15 0.14 0.14 0.12 0.10 0.11 0.09 0.07 0.06 0.05 0.04 0.04 0.04 0.02 0.01 0.02 0.04 0.04 0.04 0.05 0.07 0.09 0.14 0.18 0.18 0.14
0.12 0.10 0.10 0.08 0.07 0.07 0.07 0.06 0.07 0.06 0.07 0.08 0.09 0.10 0.13 0.16 0.17 0.13 0.10 0.09 0.08 0.08 0.08 0.06 0.04 0.04 0.04 0.03 0.02 0.02 0.01 0.02 0.02 0.02 0.02 0.02 0.02 0.03 0.05 0.07 0.10 0.13 0.15 0.15
0.07 0.05 0.06 0.06 0.05 0.04 0.04 0.04 0.04 0.03 0.03 0.05 0.08 0.12 0.13 0.12 0.11 0.09 0.07 0.06 0.06 0.08 0.07 0.04 0.04 0.03 0.03 0.01 0.01 0.01 0.01 0.01 0.01 0.01 0.01 0.01 0.01 0.02 0.04 0.06 0.07 0.09 0.11 0.15
0.05 0.04 0.04 0.04 0.03 0.03 0.04 0.03 0.02 0.02 0.03 0.05 0.07 0.09 0.11 0.09 0.07 0.06 0.06 0.06 0.04 0.03 0.02 0.02 0.02 0.02 0.02 0.01 0.00 0.01 0.01 0.01 0.01 0.01 0.01 0.01 0.01 0.02 0.02 0.03 0.05 0.08 0.10 0.14
0.04 0.03 0.03 0.03 0.03 0.02 0.02 0.02 0.02 0.02 0.03 0.05 0.04 0.04 0.04 0.04 0.04 0.04 0.05 0.06 0.04 0.01 0.01 0.01 0.02 0.01 0.01 0.00 0.00 0.00 0.01 0.02 0.01 0.01 0.01 0.01 0.02 0.02 0.02 0.03 0.03 0.05 0.07 0.09
0.04 0.03 0.02 0.03 0.02 0.03 0.03 0.03 0.03 0.02 0.03 0.04 0.03 0.02 0.02 0.03 0.03 0.04 0.03 0.03 0.02 0.01 0.01 0.01 0.01 0.01 0.00 0.00 0.00 0.00 0.01 0.01 0.01 0.01 0.01 0.01 0.01 0.01 0.01 0.02 0.02 0.02 0.04 0.05
0.08 0.05 0.04 0.03 0.03 0.04 0.04 0.03 0.03 0.03 0.03 0.02 0.02 0.02 0.02 0.02 0.02 0.02 0.02 0.01 0.00 0.00 0.00 0.00 0.00 0.00 0.00 0.00 0.00 0.00 0.00 0.00 0.01 0.01 0.01 0.00 0.00 0.01 0.01 0.01 0.01 0.02 0.02 0.03
0.10 0.07 0.05 0.04 0.04 0.04 0.05 0.04 0.04 0.03 0.02 0.02 0.01 0.01 0.01 0.02 0.02 0.01 0.00 0.01 0.01 0.01 0.00 0.00 0.00 0.00 0.00 0.00 0.00 0.00 0.00 0.01 0.01 0.01 0.01 0.01 0.00 0.00 0.00 0.00 0.01 0.01 0.01 0.02
0.13 0.10 0.07 0.07 0.08 0.07 0.06 0.05 0.04 0.03 0.02 0.01 0.01 0.01 0.01 0.01 0.01 0.01 0.00 0.01 0.01 0.01 0.00 0.00 0.00 0.00 0.00 0.00 0.00 0.00 0.01 0.01 0.01 0.01 0.01 0.01 0.01 0.00 0.00 0.00 0.00 0.00 0.01 0.01
0.20 0.17 0.13 0.12 0.11 0.08 0.06 0.05 0.04 0.03 0.01 0.01 0.01 0.01 0.01 0.00 0.00 0.00 0.00 0.01 0.00 0.00 0.00 0.00 0.00 0.00 0.00 0.01 0.01 0.01 0.01 0.01 0.01 0.01 0.01 0.01 0.01 0.01 0.01 0.01 0.01 0.01 0.01 0.02
0.25 0.20 0.16 0.11 0.09 0.06 0.05 0.05 0.03 0.02 0.01 0.01 0.01 0.01 0.01 0.01 0.00 0.00 0.00 0.00 0.00 0.00 0.00 0.00 0.00 0.00 0.01 0.01 0.01 0.01 0.01 0.02 0.02 0.01 0.01 0.01 0.01 0.01 0.01 0.01 0.01 0.02 0.02 0.02